Regional Weather Roundup
Issued by NWS

Home | Current Version | Previous Version | Text Only | Print | Product List | Glossary Off
Versions: 1 2 3 4 5 6 7 8 9 10 11 12 13 14 15 16 17 18 19 20 21 22 23 24 25 26 27 28 29 30 31 32 33 34 35 36 37 38 39 40 41 42 43 44 45 46 47 48 49 50

000
ASUS43 KMPX 291901
RWRMN
WEATHER ROUNDUP FOR MINNESOTA
NATIONAL WEATHER SERVICE TWIN CITIES/CHANHASSEN MN
200 PM CDT SAT AUG 29 2015


NOTE: "FAIR" INDICATES FEW OR NO CLOUDS BELOW 12,000 FEET WITH NO
SIGNIFICANT WEATHER AND/OR OBSTRUCTIONS TO VISIBILITY. N/A MEANS
CURRENT SKY AND/OR WEATHER CONDITIONS ARE NOT AVAILABLE.

MNZ060>063-068>070-292000-
   Twin Cities Metro

CITY           SKY/WX    TMP DP  RH WIND       PRES   REMARKS
TWIN CITIES    PTSUNNY   70  61  73 VRB6      30.05F
ST PAUL        MOSUNNY   69  61  75 E6        30.06F
CRYSTAL        SUNNY     72  60  66 S6        30.04F
BLAINE         MOSUNNY  N/A N/A N/A S5        30.05F
LAKEVILLE      MOSUNNY   70  63  78 CALM      30.06S
EDEN PRAIRIE   PTSUNNY   69  60  73 VRB6      30.05F
SOUTH ST PAUL  MOSUNNY   68  60  74 SE5       30.06S
LAKE ELMO      FAIR      68  61  77 SE5       30.07S
$$
MNZ001>005-007-008-013>017-022>024-027-028-292000-
   Northwest Minnesota

CITY           SKY/WX    TMP DP  RH WIND       PRES   REMARKS
BEMIDJI        CLOUDY    76  66  71 S8        29.97F
HALLOCK        CLOUDY    72  68  88 S12       29.89F
ROSEAU         CLOUDY    70  64  83 SE9       29.93F
WARROAD        CLOUDY    70  66  88 S6        29.94F
THIEF RVR FALL PTSUNNY  N/A N/A N/A S10       29.93S
CROOKSTON      PTSUNNY   77  66  69 S10       29.92F
FOSSTON        FAIR      77  64  65 S12       29.96S
DETROIT LAKES  MOSUNNY   77  64  65 SW13      29.99F
MOORHEAD       SUNNY     79  66  65 S13       29.95S
PARK RAPIDS    CLOUDY    78  64  61 S12       30.00S
MAHNOMEN       FAIR      78  66  68 S15       29.96F
$$
MNZ006-009>011-018-025>026-292000-
   North Central Minnesota

CITY           SKY/WX    TMP DP  RH WIND       PRES   REMARKS
BAUDETTE       CLOUDY    70  65  84 S8        29.96S
FLAG ISLAND    CLOUDY    68  64  88 S7        29.93F
INTL FALLS     CLOUDY    72  66  81 S5        29.97F
WASKISH        CLOUDY    72  66  83 CALM      29.97S
BIG FORK       MOSUNNY   75  64  69 S6        29.99F
LONGVILLE      PTSUNNY   73  64  73 S7        30.01R
GRAND RAPIDS     N/A     72  61  68 S9        30.01S
CRANE LAKE     CLOUDY    70  64  83 SE1       30.01F
ORR            CLOUDY    70  61  73 CALM      29.98F
COOK           MOSUNNY   70  61  73 SW6       30.01F
WALKER         FAIR      72  63  72 SW7       29.99F
$$
MNZ012-019>021-037-292000-
   Northeast Minnesota

CITY           SKY/WX    TMP DP  RH WIND       PRES   REMARKS
DULUTH         CLOUDY    72  59  63 SW8       30.03S
ELY            CLOUDY    70  63  78 CALM      30.02S
HIBBING        CLOUDY    72  61  68 CALM      30.01F
EVELETH        PTSUNNY   70  61  73 CALM      30.03F
DULUTH HARBOR  CLOUDY    72  63  73 SW7       30.02S
TWO HARBORS    CLOUDY    75  64  69 SW7       30.00F
SILVER BAY     SUNNY     77  63  61 W5        29.99S
GRAND MARAIS     N/A     54  50  86 SW9       29.98F
G MARAIS ARPRT CLOUDY    72  61  68 CALM      30.03S
$$
MNZ029>031-032-039>041-046>048-054>057-064-292000-
   West Central Minnesota

CITY           SKY/WX    TMP DP  RH WIND       PRES   REMARKS
FERGUS FALLS   MOSUNNY   77  64  65 S12       29.97F
WHEATON        MOSUNNY   75  66  73 S9        29.99S
MORRIS         PTSUNNY   75  63  64 SE13      30.00S
ALEXANDRIA     CLOUDY    73  60  63 S13       30.04S
ELBOW LAKE     FAIR      74  64  69 S12       29.99F
WADENA         PTSUNNY   73  63  68 S10       30.00S
GLENWOOD       PTSUNNY   72  61  68 S10       30.04S
APPLETON       PTSUNNY   75  61  60 S10       30.00F
BENSON         PTSUNNY   73  61  64 S7        30.02S
ORTONVILLE     PTSUNNY   75  64  69 S8        29.99F
MADISON        PTSUNNY   75  63  64 S10       30.00F
WILLMAR        FAIR      72  63  73 S5        30.05S
$$
MNZ033>034-036-042>043-049>051-058-059-292000-
   Central Minnesota

CITY           SKY/WX    TMP DP  RH WIND       PRES   REMARKS
ST CLOUD       SUNNY     72  60  66 S10       30.03F
SAUK CENTRE    FAIR      72  60  66 S7        30.04S
PAYNESVILLE    MOSUNNY   73  60  63 SE5       30.04F
AITKIN         MOSUNNY   73  63  68 S7        30.02S
PINE RIVER     PTSUNNY   73  63  68 S7        30.04S
BRAINERD       MOSUNNY   73  60  63 S10       30.02F
STAPLES        MOSUNNY   73  61  64 S9        30.01S
LONG PRAIRIE   FAIR      72  61  68 S8        30.04S
LITTLE FALLS   MOSUNNY   72  57  60 SW8       30.04R
LITCHFIELD     SUNNY     72  64  78 S3        30.05F
BUFFALO        PTSUNNY   67  60  77 S5        30.07S
MAPLE LAKE     MOSUNNY   70  64  81 SE7       30.06S
$$
MNZ037-044-045-052-053-292000-
   East Central Minnesota

CITY           SKY/WX    TMP DP  RH WIND       PRES   REMARKS
PRINCETON        N/A     75  63  64 SE8       30.04F
MORA           SUNNY     72  59  64 S8        30.06S
CAMBRIDGE      SUNNY     75  61  60 S6        30.03S
RUSH CITY      SUNNY     73  62  68 S7        30.05F
MOOSE LAKE     MOSUNNY   73  59  60 SW8       30.01F
HINCKLEY       FAIR      73  61  64 S7        30.04F
CLOQUET        CLOUDY    72  59  64 S6        30.03F
MCGREGOR       CLOUDY    70  59  68 S8        30.03F
$$
MNZ071>073-080-081-089-090-097-098-292000-
   Southwest Minnesota

CITY           SKY/WX    TMP DP  RH WIND       PRES   REMARKS
MONTEVIDEO     MOSUNNY   75  63  64 SW6       30.04S
GRANITE FALLS  MOSUNNY   73  62  70 S6        30.04F
CANBY          PTSUNNY   76  62  61 S7        30.02F
MARSHALL       MOSUNNY   75  61  60 S8        30.05S
REDWOOD FALLS  SUNNY     72  62  71 S6        30.03F
OLIVIA         SUNNY     70  59  68 S7        30.04S
PIPESTONE      MOSUNNY   72  63  73 SW8       30.06F
WINDOM         SUNNY     73  63  68 SE3       30.05F
WORTHINGTON    SUNNY     72  63  73 S5        30.06F
JACKSON        SUNNY     72  63  73 S5        30.07S
TRACY          SUNNY     75  64  68 SW7       30.04F
SLAYTON        SUNNY     74  63  66 CALM      30.06F
$$
MNZ065>067-074>077-082>085-091>093-292000-
   South Central Minnesota

CITY           SKY/WX    TMP DP  RH WIND       PRES   REMARKS
MANKATO        CLOUDY    63  57  82 S5        30.07S
NEW ULM        PTSUNNY   66  63  88 SE6       30.06S
ST JAMES       MOSUNNY   70  64  83 SE3       30.06F
FAIRMONT       CLOUDY    64  57  77 E6        30.07S
GLENCOE        CLOUDY    67  62  84 CALM      30.06F
FARIBAULT      MOSUNNY   72  63  73 CALM      30.06S
OWATONNA       SUNNY     72  61  68 CALM      30.06S
WASECA         MOSUNNY   68  61  77 MISG      30.08S
ALBERT LEA     MOSUNNY   72  63  73 CALM      30.06S
$$
MNZ078>079-086>088-094>096-292000-
   Southeast Minnesota

CITY           SKY/WX    TMP DP  RH WIND       PRES   REMARKS
ROCHESTER      MOSUNNY   71  63  75 CALM      30.06F
RED WING       SUNNY     72  59  64 SE5       30.05S
STANTON        MOSUNNY   72  63  72 CALM      30.05S
DODGE CENTER   SUNNY     70  61  73 CALM      30.07R
WINONA         CLOUDY    70  61  73 CALM      30.05S
AUSTIN         MOSUNNY   73  63  68 CALM      30.05S
PRESTON        PTSUNNY   69  60  70 SE5       30.07R
$$
ABBREVIATIONS USED IN REMARKS
   TC - TEMPERATURES IN CELSIUS
  WCI - WIND CHILL INDEX
   HX - HEAT INDEX
  VSB - VISIBILITY
$$


USA.gov is the U.S. government's official web portal to all federal, state and local government web resources and services.